Weather History for KMIV - May, 2013

Change the Weather History Date:

Tuesday, May 21, 2013

  Actual Average Record
Temperature  
Mean Temperature 68 °F -  
Max Temperature 72 °F 72 °F 87 °F (1962)
Min Temperature 64 °F 53 °F 30 °F (1992)
Cooling Degree Days 2    
Growing Degree Days 18 (Base 50)    
Moisture  
Dew Point 64 °F    
Average Humidity 90    
Maximum Humidity 97    
Minimum Humidity 78    
Precipitation  
Precipitation 0.00 in - - ()
Sea Level Pressure  
Sea Level Pressure 29.96 in    
Wind  
Wind Speed 3 mph (SW)    
Max Wind Speed 8 mph    
Max Gust Speed 18 mph    
Visibility 8 miles    
Events      
Averages and records for this station are not official NWS values.
T = Trace of Precipitation, MM = Missing Value Source: NWS Daily Summary

Daily Weather History Graph

Daily Weather History Graph

Search for Another Location

Airport or City:

Trip Planner

Search our weather history database for the weather conditions in past years. The results will help you decide how hot, cold, wet, or windy it might be!

Date:

Astronomy

May. 21, 2013 Rise Set
Actual Time 5:41 AM EDT 8:12 PM EDT
Civil Twilight 5:10 AM EDT 8:43 PM EDT
Nautical Twilight 4:32 AM EDT 9:22 PM EDT
Astronomical Twilight 3:49 AM EDT 10:04 PM EDT
Moon 4:24 PM EDT (5/21) 3:06 AM EDT (5/21)
Length of Visible Light 15h 32m
Length of Day
14h 31m
Waxing Gibbous, 84% of the Moon is Illuminated
May 21
Waxing Gibbous
May 25
Full
May 31
Last Quarter
Jun 8
New
Jun 16
First Quarter

Hourly Weather History & Observations

Time (EDT) Temp. Dew Point Humidity Pressure Visibility Wind Dir Wind Speed Gust Speed Precip Events Conditions
12:54 AM 66.9 °F 64.0 °F 90% 30.00 in 10.0 mi Calm Calm - N/A   Clear
1:54 AM 66.9 °F 64.0 °F 90% 29.98 in 9.0 mi SSW 3.5 mph - N/A   Clear
2:54 AM 66.9 °F 64.0 °F 90% 29.97 in 8.0 mi SW 3.5 mph - N/A   Clear
3:54 AM 66.0 °F 64.0 °F 93% 29.97 in 7.0 mi Calm Calm - N/A   Clear
4:54 AM 66.0 °F 64.0 °F 93% 29.98 in 5.0 mi Calm Calm - N/A   Partly Cloudy
5:26 AM 64.4 °F 62.6 °F 94% 29.98 in 1.8 mi Calm Calm - N/A   Clear
5:35 AM 64.4 °F 62.6 °F 94% 29.98 in 2.0 mi Calm Calm - N/A   Partly Cloudy
5:43 AM 64.4 °F 62.6 °F 94% 29.98 in 3.0 mi Calm Calm - N/A   Mostly Cloudy
5:54 AM 64.9 °F 64.0 °F 97% 29.99 in 3.0 mi Calm Calm - N/A   Mostly Cloudy
6:54 AM 66.9 °F 64.9 °F 93% 30.00 in 4.0 mi Variable 3.5 mph - N/A   Overcast
7:54 AM 68.0 °F 66.0 °F 93% 30.01 in 7.0 mi Variable 3.5 mph - N/A   Overcast
8:54 AM 70.0 °F 66.0 °F 87% 30.02 in 8.0 mi WSW 6.9 mph - N/A   Overcast
9:54 AM 71.1 °F 66.0 °F 84% 30.01 in 6.0 mi Variable 4.6 mph - N/A   Haze
10:04 AM 71.6 °F 66.2 °F 83% 30.00 in 7.0 mi WSW 5.8 mph - N/A   Overcast
10:54 AM 72.0 °F 64.9 °F 78% 29.99 in 7.0 mi SSW 4.6 mph - N/A   Overcast
11:54 AM - - N/A% 29.99 in 9.0 mi SSW 6.9 mph - N/A   Overcast
12:09 PM - - N/A% 29.98 in 9.0 mi Variable 5.8 mph - N/A   Overcast
12:54 PM - - N/A% 29.98 in 9.0 mi SW 8.1 mph - N/A   Overcast
1:54 PM - - N/A% 29.96 in 10.0 mi West 8.1 mph - N/A   Mostly Cloudy
2:27 PM - - N/A% 29.95 in 10.0 mi WSW 8.1 mph - N/A   Scattered Clouds
2:52 PM - - N/A% 29.95 in 10.0 mi WSW 6.9 mph 17.3 mph N/A   Mostly Cloudy
2:54 PM - - N/A% 29.95 in 10.0 mi WSW 6.9 mph - N/A   Mostly Cloudy
3:37 PM - - N/A% 29.94 in 10.0 mi WSW 8.1 mph - N/A   Scattered Clouds
3:54 PM - - N/A% 29.93 in 10.0 mi SSW 8.1 mph 18.4 mph N/A   Partly Cloudy
4:54 PM - - N/A% 29.92 in 10.0 mi Variable 4.6 mph - N/A   Scattered Clouds
5:54 PM - - N/A% 29.91 in 10.0 mi WSW 5.8 mph - N/A   Clear
6:54 PM - - N/A% 29.90 in 10.0 mi SSE 4.6 mph - N/A   Clear
7:54 PM - - N/A% 29.90 in 10.0 mi Calm Calm - N/A   Clear
8:54 PM - - N/A% 29.90 in 10.0 mi Calm Calm - N/A   Clear
9:54 PM - - N/A% 29.91 in 9.0 mi Calm Calm - N/A   Clear
10:54 PM - - N/A% 29.90 in 8.0 mi Calm Calm - N/A   Clear
11:54 PM - - N/A% 29.90 in 7.0 mi Calm Calm - N/A   Clear